Weather History for Lapeer, MI

Change the Weather History Date:

Sunday, March 3, 2013

  Actual Average (KFNT) Record (KFNT)
Temperature  
Mean Temperature 18 °F 29 °F  
Max Temperature 24 °F 38 °F 68 °F (1974)
Min Temperature 11 °F 20 °F -16 °F (2014)
Degree Days  
Heating Degree Days 46 36  
Month to date heating degree days 108  
Since 1 July heating degree days 5196  
Cooling Degree Days 0 0  
Month to date cooling degree days 0  
Year to date cooling degree days 0  
Moisture  
Dew Point 13 °F    
Average Humidity 79    
Maximum Humidity 93    
Minimum Humidity 66    
Precipitation  
Precipitation 0.00 in 0.06 in 1.10 in (1941)
Month to date precipitation 0.17  
Year to date precipitation 3.28  
Snow  
Snow 0.00 in 0.30 in 4.90 in (1954)
Month to date snowfall 0.9  
Since 1 July snowfall 39.5  
Snow Depth -    
Sea Level Pressure  
Sea Level Pressure 30.01 in    
Wind  
Wind Speed 6 mph (NW)    
Max Wind Speed 10 mph    
Max Gust Speed 17 mph    
Visibility 10 miles    
Events Snow    
T = Trace of Precipitation, MM = Missing Value Source: NWS Daily Summary

Daily Weather History Graph

Daily Weather History Graph

Search for Another Location

Airport:

Trip Planner

Search our weather history database for the weather conditions in past years. The results will help you decide how hot, cold, wet, or windy it might be!

Date:

Astronomy

Mar. 03, 2013 Rise Set
Actual Time 7:05 AM EST 6:25 PM EST
Civil Twilight 6:36 AM EST 6:53 PM EST
Nautical Twilight 6:04 AM EST 7:26 PM EST
Astronomical Twilight 5:31 AM EST 7:59 PM EST
Moon 12:12 AM EST (3/3) 10:09 AM EST (3/3)
Length of Visible Light 12h 16m
Length of Day
11h 19m
Waning Gibbous, 64% of the Moon is Illuminated
Mar 3
Waning Gibbous
Mar 4
Last Quarter
Mar 11
New
Mar 19
First Quarter
Mar 27
Full

Hourly Weather History & Observations

Time (EST) Temp. Windchill Dew Point Humidity Pressure Visibility Wind Dir Wind Speed Gust Speed Precip Events Conditions
12:12 AM 21.2 °F 11.7 °F 16.3 °F 82% 30.03 in 10.0 mi NNW 8.1 mph - N/A Snow Light Snow
12:32 AM 21.0 °F 12.4 °F 16.0 °F 81% 30.03 in 10.0 mi NNW 6.9 mph - N/A Snow Light Snow
12:52 AM 21.0 °F 12.4 °F 16.2 °F 81% 30.03 in 7.0 mi NW 6.9 mph - N/A Snow Light Snow
1:13 AM 21.0 °F 14.6 °F 16.2 °F 81% 30.03 in 10.0 mi NW 4.6 mph - N/A Snow Light Snow
1:33 AM 21.0 °F 14.6 °F 16.0 °F 81% 30.03 in 10.0 mi NW 4.6 mph - N/A Snow Light Snow
1:52 AM 21.2 °F 10.9 °F 15.6 °F 79% 30.02 in 10.0 mi NW 9.2 mph - N/A Snow Light Snow
2:13 AM 21.2 °F 12.6 °F 14.9 °F 77% 30.02 in 10.0 mi NW 6.9 mph - N/A Snow Light Snow
2:52 AM 21.2 °F 14.9 °F 14.9 °F 77% 30.00 in 10.0 mi NW 4.6 mph - N/A   Overcast
3:13 AM 21.0 °F 14.6 °F 15.4 °F 79% 30.00 in 10.0 mi WNW 4.6 mph - N/A   Overcast
3:32 AM 20.8 °F 14.4 °F 15.4 °F 80% 29.99 in 10.0 mi NW 4.6 mph - N/A   Overcast
3:52 AM 20.7 °F 11.0 °F 14.9 °F 78% 29.99 in 10.0 mi WNW 8.1 mph - N/A   Overcast
4:13 AM 20.3 °F 10.6 °F 14.9 °F 80% 29.99 in 10.0 mi NW 8.1 mph - N/A   Overcast
4:32 AM 19.9 °F 10.1 °F 14.7 °F 80% 29.99 in 10.0 mi NW 8.1 mph - N/A   Overcast
4:52 AM 19.4 °F 9.5 °F 14.5 °F 81% 29.99 in 10.0 mi NW 8.1 mph - N/A   Overcast
5:13 AM 19.0 °F 8.2 °F 14.0 °F 81% 30.00 in 10.0 mi WNW 9.2 mph - N/A   Overcast
5:32 AM 18.5 °F 8.4 °F 13.6 °F 81% 30.00 in 10.0 mi WNW 8.1 mph - N/A   Overcast
6:13 AM 16.7 °F 7.2 °F 12.0 °F 82% 30.00 in 10.0 mi NW 6.9 mph - N/A   Overcast
6:32 AM 15.8 °F 8.6 °F 11.3 °F 82% 30.00 in 10.0 mi NW 4.6 mph - N/A   Scattered Clouds
6:52 AM 15.3 °F 7.9 °F 11.3 °F 84% 30.01 in 10.0 mi NW 4.6 mph - N/A   Clear
7:13 AM 14.9 °F 7.5 °F 11.1 °F 85% 30.01 in 10.0 mi NW 4.6 mph - N/A   Clear
7:32 AM 14.9 °F 7.5 °F 11.1 °F 85% 30.02 in 10.0 mi WNW 4.6 mph - N/A   Clear
7:52 AM 15.4 °F 8.1 °F 11.3 °F 84% 30.02 in 10.0 mi WNW 4.6 mph - N/A   Clear
8:13 AM 16.0 °F 7.4 °F 11.5 °F 82% 30.02 in 10.0 mi WNW 5.8 mph - N/A   Mostly Cloudy
8:32 AM 16.3 °F 5.7 °F 11.7 °F 82% 30.02 in 10.0 mi NW 8.1 mph - N/A   Scattered Clouds
8:52 AM 17.4 °F 7.1 °F 12.0 °F 79% 30.02 in 10.0 mi NW 8.1 mph - N/A   Mostly Cloudy
9:13 AM 17.6 °F 7.3 °F 12.4 °F 80% 30.01 in 10.0 mi NW 8.1 mph - N/A   Overcast
9:32 AM 18.0 °F 8.7 °F 12.6 °F 79% 30.01 in 7.0 mi NW 6.9 mph - N/A Snow Light Snow
9:52 AM 18.5 °F 7.5 °F 13.1 °F 79% 30.02 in 5.0 mi NNW 9.2 mph - N/A Snow Light Snow
10:13 AM 18.5 °F 8.4 °F 13.1 °F 79% 30.02 in 5.0 mi NNW 8.1 mph - N/A Snow Light Snow
10:32 AM 19.2 °F 9.3 °F 13.8 °F 80% 30.01 in 7.0 mi WNW 8.1 mph - N/A Snow Light Snow
10:52 AM 20.3 °F 10.6 °F 13.5 °F 75% 30.01 in 10.0 mi WNW 8.1 mph 17.3 mph N/A Snow Light Snow
11:13 AM 21.6 °F 11.3 °F 13.6 °F 72% 30.00 in 10.0 mi NW 9.2 mph - N/A   Overcast
11:32 AM 21.6 °F 10.6 °F 13.3 °F 70% 30.00 in 10.0 mi WNW 10.4 mph - N/A   Overcast
11:52 AM 20.8 °F 11.2 °F 13.1 °F 72% 30.01 in 10.0 mi NW 8.1 mph - N/A   Overcast
12:13 PM 20.7 °F 10.2 °F 13.6 °F 74% 30.01 in 10.0 mi NW 9.2 mph - N/A   Overcast
12:32 PM 20.5 °F 10.8 °F 13.6 °F 75% 30.00 in 10.0 mi WNW 8.1 mph - N/A Snow Light Snow
12:53 PM 20.5 °F 10.8 °F 13.5 °F 74% 30.00 in 10.0 mi NW 8.1 mph - N/A Snow Light Snow
1:13 PM 20.8 °F 11.2 °F 13.5 °F 73% 30.00 in 10.0 mi WNW 8.1 mph - N/A Snow Light Snow
1:32 PM 20.7 °F 9.5 °F 13.6 °F 74% 29.99 in 10.0 mi NNW 10.4 mph - N/A   Overcast
1:53 PM 20.7 °F 11.9 °F 13.3 °F 73% 29.99 in 10.0 mi WNW 6.9 mph - N/A Snow Light Snow
2:13 PM 21.2 °F 10.9 °F 13.3 °F 72% 29.99 in 10.0 mi NNW 9.2 mph - N/A   Overcast
2:53 PM 21.7 °F 13.2 °F 13.6 °F 71% 29.99 in 10.0 mi NW 6.9 mph - N/A   Overcast
3:12 PM 21.9 °F 14.5 °F 14.0 °F 72% 29.98 in 10.0 mi NNW 5.8 mph - N/A Snow Light Snow
3:32 PM 22.5 °F 13.2 °F 14.2 °F 71% 29.99 in 10.0 mi WNW 8.1 mph - N/A   Overcast
3:53 PM 22.5 °F 13.2 °F 13.8 °F 69% 29.99 in 10.0 mi North 8.1 mph - N/A   Overcast
4:12 PM 22.8 °F 16.7 °F 13.8 °F 68% 29.99 in 10.0 mi North 4.6 mph - N/A   Overcast
4:32 PM 23.2 °F 17.2 °F 14.2 °F 68% 29.99 in 10.0 mi NNW 4.6 mph - N/A   Overcast
4:53 PM 23.0 °F - 13.6 °F 67% 29.99 in 10.0 mi Calm Calm - N/A   Overcast
5:12 PM 23.9 °F - 14.0 °F 66% 29.99 in 10.0 mi Calm Calm - N/A   Mostly Cloudy
5:32 PM 23.9 °F 19.5 °F 14.0 °F 66% 29.99 in 10.0 mi West 3.5 mph - N/A   Overcast
5:53 PM 24.3 °F 19.9 °F 14.5 °F 67% 29.99 in 10.0 mi West 3.5 mph - N/A   Overcast
6:12 PM 23.9 °F - 14.4 °F 67% 29.99 in 10.0 mi Calm Calm - N/A   Overcast
6:32 PM 23.4 °F - 14.2 °F 68% 30.00 in 10.0 mi Calm Calm - N/A   Mostly Cloudy
6:53 PM 21.4 °F - 14.7 °F 75% 30.00 in 10.0 mi Calm Calm - N/A   Scattered Clouds
7:32 PM 17.4 °F - 14.0 °F 86% 30.00 in 10.0 mi Calm Calm - N/A   Scattered Clouds
7:53 PM 17.2 °F - 13.5 °F 85% 30.01 in 10.0 mi Calm Calm - N/A   Scattered Clouds
8:12 PM 15.4 °F - 12.7 °F 89% 30.01 in 10.0 mi Calm Calm - N/A   Overcast
8:32 PM 15.8 °F - 13.3 °F 90% 30.01 in 10.0 mi Calm Calm - N/A   Mostly Cloudy
8:52 PM 14.7 °F - 12.4 °F 90% 30.01 in 10.0 mi Calm Calm - N/A   Mostly Cloudy
9:12 PM 15.1 °F - 12.9 °F 91% 30.01 in 10.0 mi Calm Calm - N/A   Mostly Cloudy
9:33 PM 15.3 °F - 12.9 °F 90% 30.02 in 10.0 mi Calm Calm - N/A   Overcast
9:52 PM 15.4 °F - 13.1 °F 90% 30.02 in 10.0 mi Calm Calm - N/A   Overcast
10:12 PM 14.0 °F - 11.8 °F 91% 30.02 in 10.0 mi Calm Calm - N/A   Scattered Clouds
10:33 PM 13.1 °F - 11.5 °F 93% 30.02 in 10.0 mi Calm Calm - N/A   Clear
10:52 PM 13.8 °F - 10.9 °F 88% 30.02 in 10.0 mi Calm Calm - N/A   Clear
11:12 PM 13.1 °F - 11.1 °F 92% 30.02 in 10.0 mi Calm Calm - N/A   Clear
11:33 PM 13.1 °F - 10.9 °F 91% 30.02 in 10.0 mi Calm Calm - N/A   Clear
11:52 PM 11.8 °F - 10.0 °F 92% 30.03 in 10.0 mi Calm Calm - N/A   Clear